Location: Gorze? G�rny
(49.8500°N, 19.5000°E)
Time: 05:27:49
(UTC+00:00)

USA 305 - Pass Details

Date: 13 May 2021
Orbit: 567 x 573 km, 54.0° (Epoch: 07 May)

Event Time Altitude Azimuth Distance (km) Brightness Sun altitude
Rises 20:25:55 0° 293° (WNW) 2,775 7.4 -15.6°
Reaches altitude 10° 20:28:25 10° 280° (W) 1,875 6.1 -15.8°
Maximum altitude 20:31:59 26° 224° (SW) 1,133 4.2 -16.1°
Enters shadow 20:33:23 22° 193° (SSW) 1,273 4.3 -16.2°
